Temperature
20 20 19 19 19 19 19 18 18 18 18 18 18 18 18 18 18 17 17 17 17 17 17 17 17 17 17 17 16 16 16 16 16 16 16 16 16 16 16 16 16 16 15
20 20 19 19 19 18 18 18 18 18 17 17 17 17 17 17 17 17 17 17 17 16 16 16 16 16 16 16 16 16 16 16 16 16 16 16 16 16 16 15 15 15 15
20 19 19 19 18 18 18 18 18 17 17 17 17 17 17 17 17 17 17 16 16 16 16 16 16 16 16 16 16 15 15 15 15 15 15 16 15 15 15 15 15 15 15
20 19 19 18 18 18 18 18 17 17 17 17 17 17 17 17 17 16 16 16 16 16 16 16 15 15 15 15 15 15 15 15 15 15 15 15 15 15 15 15 15 15 15
19 19 19 18 18 18 18 17 17 17 17 17 17 17 16 16 16 16 16 16 16 15 15 15 15 15 15 15 15 15 15 14 14 14 14 14 14 14 14 14 14 14 14
19 19 18 18 18 18 18 17 17 17 16 16 16 16 16 16 16 16 16 16 15 15 15 15 15 15 15 15 15 14 14 14 14 14 14 14 14 14 14 14 14 13 14
19 18 18 18 18 18 17 17 17 17 16 16 16 16 16 16 16 16 15 15 15 15 14 14 14 14 14 14 14 14 14 14 14 14 13 14 14 14 13 13 13 13 13
18 18 18 18 17 17 17 17 17 16 16 16 16 16 16 16 15 15 15 15 15 15 14 14 14 14 14 14 14 14 14 14 14 14 14 14 13 13 13 13 13 13 13
18 18 18 17 17 17 17 17 16 16 16 16 15 15 15 15 15 15 15 15 15 14 14 14 14 14 14 14 14 14 14 14 14 14 14 14 14 13 13 13 13 13 13
18 17 17 17 17 17 16 16 16 16 15 15 15 15 15 15 15 15 15 15 14 14 14 14 14 14 14 14 14 14 14 14 14 14 14 13 14 13 13 13 12 12 12
17 17 17 17 17 17 16 16 16 16 15 15 15 15 15 15 15 15 15 15 14 14 14 14 14 14 14 13 13 13 14 13 14 13 13 13 13 13 13 13 12 12 12
17 17 17 17 16 16 16 16 16 15 15 15 15 15 15 15 15 15 15 14 14 14 14 13 13 13 13 13 13 13 13 13 13 13 13 13 13 13 13 12 12 12 12
16 16 16 16 16 16 16 16 15 15 15 15 15 15 15 14 14 14 14 14 14 13 13 13 13 13 13 13 13 13 13 13 13 13 13 12 12 12 12 12 12 12 12
16 16 16 16 16 16 16 15 15 15 15 15 15 14 14 14 14 14 14 13 13 13 13 13 13 13 13 13 13 13 13 13 12 12 12 12 12 12 12 12 12 12 12
15 15 15 15 15 15 15 15 15 15 15 15 14 14 14 14 14 14 13 13 13 13 13 13 13 13 13 13 13 13 12 12 12 12 12 12 12 12 12 12 12 12 12
15 15 15 15 15 15 15 15 15 15 15 15 14 14 14 14 14 13 13 13 13 13 13 12 12 12 12 12 12 12 12 12 12 12 12 11 11 11 11 11 11 11 11
15 15 15 15 15 15 15 15 15 15 14 14 14 14 14 14 13 13 13 13 13 13 12 12 12 12 12 12 12 12 12 12 11 11 11 11 11 11 11 11 11 11 11
14 14 14 15 15 15 15 15 15 15 14 14 14 14 14 13 13 13 13 13 13 12 12 12 12 12 12 12 12 11 12 11 11 11 11 11 11 11 11 10 11 11 11
14 14 14 14 14 14 15 15 15 14 14 14 14 14 13 13 13 13 13 12 12 12 12 12 12 12 12 11 11 11 11 11 11 11 11 10 10 10 10 10 10 10 10
14 14 14 14 14 14 14 14 14 14 14 14 14 13 13 13 13 12 12 12 12 11 11 11 11 11 11 11 11 11 11 11 11 11 10 10 10 10 10 10 10 10 10
14 14 14 14 14 14 14 14 14 14 14 14 13 13 13 13 12 12 12 12 12 11 11 11 11 11 11 11 11 11 11 10 10 10 10 10 10 9 9 9 9 9 9
13 14 14 13 13 14 14 13 13 13 13 13 13 13 12 12 12 12 11 11 11 11 11 11 11 11 11 10 10 10 10 10 10 10 10 9 9 9 9 9 9 9 9
13 13 13 13 13 13 13 13 13 13 13 13 12 12 12 12 11 11 11 11 11 11 11 10 10 10 10 10 10 10 10 10 10 9 9 9 9 9 9 8 8 8 8
13 13 13 13 13 13 13 13 12 12 12 12 12 11 11 11 11 11 10 10 10 10 10 10 10 10 10 10 10 9 9 9 9 9 9 9 9 8 8 8 8 8 8
12 12 12 12 12 12 12 12 12 12 11 11 11 11 11 10 10 10 10 10 10 10 9 9 9 9 9 9 9 9 9 9 9 9 8 8 8 8 8 8 8 8 8
12 12 11 11 11 11 11 11 11 11 11 10 10 10 10 10 10 10 9 9 9 9 9 9 9 9 9 9 9 8 8 8 8 8 8 8 8 7 7 7 7 7 7
Wind_Speed
6 4 3 3 3 2 1 0 1 1 2 2 2 2 2 1 1 2 2 2 2 2 3 2 2 2 3 4 3 3 2 2 4 4 3 2 1 1 2 3 4 5 6
6 5 3 3 3 2 1 1 0 0 1 1 1 2 2 2 2 2 3 3 2 2 3 3 3 3 3 3 3 3 3 3 3 5 4 2 2 2 3 4 3 4 4
5 5 4 3 3 2 2 1 1 0 1 1 1 2 2 2 2 2 2 2 3 3 3 2 3 3 3 3 3 3 3 4 3 4 5 3 3 2 2 3 4 3 4
4 4 4 4 3 2 2 2 2 1 1 2 1 2 1 2 2 2 2 2 2 2 3 3 3 3 3 4 3 3 3 4 4 4 4 4 3 3 2 2 3 2 3
3 3 4 4 3 2 2 2 1 2 2 1 1 2 2 1 2 3 3 2 2 2 2 2 2 3 3 3 3 3 4 4 4 4 4 3 3 3 3 3 3 3 4
2 2 3 3 3 3 2 2 1 1 1 1 1 1 2 2 4 4 2 2 2 2 3 3 2 2 2 3 3 4 4 5 4 4 4 4 4 3 3 4 4 4 4
1 1 2 2 2 2 2 2 1 1 1 1 1 1 1 2 3 3 3 2 2 2 3 3 4 4 3 3 4 4 5 6 6 5 5 5 5 3 3 4 4 5 6
1 1 1 2 1 1 1 1 1 1 0 0 1 0 0 2 3 3 3 2 2 2 3 3 2 3 4 4 4 4 4 4 5 4 4 5 5 4 3 4 5 5 5
1 0 1 1 1 1 2 1 1 1 1 1 1 1 1 1 2 3 3 3 2 3 2 2 2 2 3 4 3 4 5 5 5 5 6 6 6 7 5 3 4 4 5
1 0 0 1 1 1 1 1 1 1 2 2 1 1 1 2 2 3 3 3 3 2 2 1 1 2 2 3 3 4 5 6 6 6 5 5 5 5 6 4 4 5 4
1 1 1 1 1 1 1 1 1 1 2 2 2 2 3 3 3 3 3 2 3 3 2 2 0 1 3 4 4 4 7 6 5 5 5 4 3 3 3 4 4 4 4
1 0 1 0 2 1 2 2 2 2 3 3 3 4 3 3 3 3 4 4 3 2 2 3 2 2 4 6 5 6 8 6 4 4 4 4 3 3 2 3 3 3 4
1 0 0 0 1 1 1 2 2 3 4 3 3 3 3 2 2 3 4 5 4 3 3 5 6 6 6 5 7 7 5 3 3 3 3 3 3 3 2 2 2 3 3
0 1 1 1 1 2 2 2 2 2 3 3 3 3 2 1 1 0 1 2 3 4 4 5 6 6 6 5 5 4 3 3 3 2 3 3 3 2 2 2 2 2 2
1 1 2 2 2 2 1 2 1 1 2 3 3 2 2 1 1 1 0 1 2 2 3 3 3 2 3 3 3 3 2 2 2 3 2 3 3 3 2 2 2 2 2
2 2 3 3 3 3 2 1 0 2 2 2 2 2 2 2 1 0 1 2 3 2 2 3 3 3 4 4 3 2 1 1 2 2 2 3 3 3 3 3 3 2 2
2 3 3 3 3 2 2 2 1 2 2 2 3 3 3 4 3 2 2 3 4 1 2 4 4 3 4 4 3 3 2 1 1 2 3 3 3 3 3 3 3 3 2
3 3 3 3 3 3 3 3 2 2 2 1 3 4 4 4 5 5 2 1 2 2 3 4 4 3 3 3 3 3 3 2 1 2 3 3 3 3 3 3 3 3 3
3 3 3 4 3 3 3 3 3 2 2 1 1 1 4 4 4 4 3 3 4 4 4 3 3 3 3 2 3 3 3 2 2 2 2 2 3 3 3 3 3 4 3
2 4 4 4 4 3 3 3 3 2 1 2 2 1 0 0 1 1 2 3 4 4 3 4 3 3 3 3 3 3 3 2 2 2 2 2 2 3 3 4 3 3 3
3 3 4 4 4 3 3 3 3 3 3 2 1 1 1 1 2 2 3 3 3 4 3 3 3 3 3 2 2 3 4 3 3 3 2 2 3 3 3 4 4 3 3
4 3 3 3 3 3 3 3 3 3 3 2 1 1 2 2 2 2 3 2 2 2 2 2 2 2 2 2 2 3 3 3 4 4 3 3 2 3 3 4 4 3 3
4 4 3 3 3 3 3 3 3 3 3 2 2 2 1 2 2 2 2 3 2 2 3 3 3 3 4 4 4 3 3 3 3 4 4 3 3 2 3 3 4 4 3
5 5 4 3 3 3 3 3 3 4 4 3 3 3 2 2 3 3 3 3 3 3 3 3 3 4 5 4 4 5 5 5 4 3 4 3 3 3 3 3 3 3 3
4 4 4 4 4 4 4 4 4 3 3 3 2 2 2 3 3 2 3 3 3 3 4 4 3 4 6 6 6 5 6 6 5 5 4 3 3 3 3 4 3 3 3
5 4 3 3 3 3 3 3 4 4 4 3 3 2 2 2 2 2 2 3 3 3 3 4 5 5 5 6 6 6 6 5 6 6 4 3 4 4 4 4 4 4 4
Wind_Direction
179 174 170 167 170 163 158 72 59 35 12 351 344 342 335 343 341 323 307 327 328 314 307 318 316 319 327 320 318 313 308 297 285 294 290 282 258 244 181 211 205 196 202
165 163 175 158 156 159 172 162 169 157 295 316 330 328 320 342 326 318 318 346 336 341 343 347 335 324 331 328 329 326 316 300 284 290 288 289 264 244 215 228 233 225 215
159 166 165 155 154 159 169 171 199 271 287 302 309 306 323 332 326 322 323 330 335 337 339 337 330 336 333 324 324 328 322 318 309 298 297 286 274 262 239 244 253 238 241
150 160 160 162 161 171 182 175 189 224 252 274 304 322 318 321 332 336 322 313 318 323 325 321 333 337 335 323 319 327 319 312 309 304 298 296 293 292 281 271 277 267 268
143 163 164 165 164 175 197 200 200 225 243 260 295 307 307 310 348 350 314 310 332 330 321 322 332 341 346 320 315 322 323 314 310 307 305 309 310 318 306 293 286 280 266
156 168 157 171 165 171 195 203 207 228 258 281 279 300 345 338 359 9 1 336 343 331 321 314 297 322 329 299 286 291 288 288 293 294 299 297 297 302 300 296 290 289 284
158 159 155 166 176 191 218 207 204 212 235 277 299 45 60 357 355 357 340 308 317 312 308 306 306 327 345 327 295 283 279 272 264 269 281 286 289 292 290 294 297 291 279
118 133 157 159 177 186 207 216 184 181 194 205 242 248 255 331 338 329 318 276 275 287 295 309 322 340 338 330 319 316 303 295 277 263 268 280 290 291 273 272 281 291 285
23 57 125 163 183 182 192 207 185 206 239 235 238 235 255 306 302 300 299 274 273 277 283 307 315 315 329 332 317 309 308 304 299 290 268 267 275 284 282 283 282 286 289
294 351 47 115 163 172 180 204 210 224 242 253 260 242 243 262 278 288 283 273 278 282 277 256 18 339 316 319 309 302 295 297 307 306 300 281 266 264 262 251 265 273 277
11 49 64 55 155 166 174 175 198 220 246 255 261 249 240 247 247 242 237 254 281 294 302 308 306 297 282 280 279 281 273 281 290 288 289 283 265 257 255 252 260 264 266
360 51 101 154 257 231 175 190 206 220 239 250 250 256 259 246 236 230 222 230 261 285 297 312 334 308 279 280 279 285 284 285 277 281 286 291 291 282 276 268 254 249 250
315 319 72 285 286 280 234 217 224 231 247 250 245 248 259 258 244 231 222 228 247 257 285 313 314 292 282 279 278 284 284 273 276 290 297 294 286 288 288 285 272 258 258
330 296 270 247 258 263 254 241 239 245 250 259 263 272 273 284 345 231 230 244 249 257 276 290 283 276 273 275 288 279 253 262 269 281 298 298 296 291 285 273 263 258 266
305 267 255 250 247 254 262 293 272 286 249 254 279 288 296 307 304 347 244 293 300 305 306 283 280 279 274 267 268 267 262 279 292 299 309 315 318 318 313 310 304 287 275
289 273 269 262 247 231 223 272 265 216 220 209 231 264 299 286 246 262 2 324 311 325 321 290 291 290 291 290 283 281 266 275 302 306 311 315 321 321 324 327 315 298 287
280 283 282 279 272 257 248 242 253 242 232 229 231 241 241 274 284 274 294 320 307 300 279 285 289 293 290 290 296 298 300 297 290 298 307 311 315 317 321 323 322 315 304
280 271 280 280 278 279 276 271 264 258 248 231 237 235 231 240 253 252 249 342 305 269 266 279 283 283 285 301 310 307 301 302 294 296 301 307 314 315 318 322 321 319 312
301 296 293 289 287 290 286 283 283 284 285 287 285 249 240 240 247 256 223 240 265 278 279 281 287 294 299 301 300 297 301 303 308 303 307 312 319 321 322 321 326 331 327
277 280 290 294 294 293 297 289 291 300 297 292 293 311 350 270 274 244 227 252 262 270 284 290 298 307 310 306 298 300 301 299 298 303 315 318 319 323 323 319 329 338 334
287 272 265 282 292 298 300 297 302 304 301 297 312 344 168 263 284 281 252 252 262 272 279 295 312 310 304 306 323 323 324 333 340 336 334 327 325 328 328 332 337 335 332
299 291 280 282 289 302 300 298 298 295 294 304 344 1 227 268 307 332 320 288 285 292 301 303 313 325 342 345 344 338 341 355 351 337 333 329 328 328 330 328 324 325 331
310 316 304 301 300 293 286 301 313 318 318 322 328 332 322 317 328 342 331 336 351 351 351 5 2 351 2 14 11 13 9 359 340 326 322 325 325 319 309 314 320 324 324
326 326 320 317 315 318 333 341 338 330 327 333 349 357 354 341 345 2 10 8 1 6 4 9 15 10 14 16 17 22 18 4 343 328 322 317 318 318 315 316 316 316 320
323 326 331 340 343 342 343 342 336 332 336 349 3 359 349 340 343 0 6 6 357 358 4 8 19 24 20 17 22 27 23 17 8 351 333 327 322 317 319 323 325 324 330
323 325 331 338 344 342 340 339 338 344 352 0 3 360 356 350 355 7 18 5 356 4 10 17 22 27 24 23 31 34 29 14 359 351 336 327 324 328 328 324 324 332 340
Height
1510 1511 1512 1513 1513 1514 1514 1514 1514 1514 1514 1514 1513 1513 1513 1512 1512 1511 1511 1511 1510 1510 1509 1508 1507 1507 1506 1506 1505 1505 1504 1504 1502 1500 1500 1500 1499 1499 1498 1497 1496 1495 1494
1509 1510 1511 1512 1512 1513 1513 1513 1513 1513 1513 1513 1512 1512 1511 1511 1510 1510 1509 1509 1508 1508 1507 1506 1505 1505 1504 1503 1503 1502 1501 1501 1500 1498 1497 1497 1497 1495 1495 1494 1493 1492 1492
1508 1508 1509 1510 1511 1511 1512 1512 1512 1512 1512 1512 1511 1510 1510 1509 1509 1508 1507 1507 1506 1506 1505 1504 1504 1503 1502 1501 1500 1500 1499 1498 1497 1496 1494 1494 1494 1493 1492 1491 1491 1489 1488
1507 1507 1508 1508 1509 1510 1510 1510 1510 1510 1510 1510 1510 1509 1508 1508 1507 1506 1505 1505 1504 1504 1503 1502 1501 1501 1500 1499 1498 1497 1496 1496 1495 1494 1492 1491 1490 1490 1489 1488 1487 1486 1485
1506 1506 1507 1507 1508 1508 1509 1509 1509 1509 1509 1509 1508 1507 1507 1506 1505 1504 1504 1503 1503 1502 1501 1500 1499 1499 1498 1497 1496 1495 1494 1493 1492 1491 1489 1488 1487 1486 1485 1485 1483 1482 1482
1505 1505 1506 1506 1507 1507 1507 1507 1507 1507 1507 1506 1506 1505 1505 1504 1504 1503 1502 1501 1501 1500 1499 1498 1497 1496 1496 1495 1494 1493 1492 1491 1490 1489 1487 1486 1485 1484 1483 1482 1480 1479 1478
1504 1504 1504 1505 1505 1505 1506 1506 1505 1505 1504 1504 1503 1503 1502 1502 1502 1501 1500 1499 1498 1497 1497 1496 1496 1495 1493 1492 1491 1490 1489 1488 1487 1486 1484 1483 1482 1481 1480 1478 1477 1476 1475
1502 1502 1503 1503 1503 1504 1504 1504 1504 1503 1503 1502 1501 1501 1500 1500 1499 1499 1498 1497 1496 1495 1495 1494 1492 1491 1490 1489 1488 1487 1486 1485 1484 1482 1481 1480 1479 1478 1477 1476 1474 1473 1471
1501 1501 1501 1501 1501 1501 1501 1501 1502 1501 1501 1501 1500 1499 1498 1497 1497 1497 1496 1495 1494 1493 1492 1491 1490 1489 1488 1486 1485 1483 1482 1481 1481 1480 1478 1477 1476 1475 1474 1473 1471 1470 1468
1500 1500 1500 1500 1499 1499 1499 1499 1499 1499 1499 1499 1498 1497 1496 1495 1495 1494 1494 1493 1491 1490 1490 1489 1487 1486 1485 1484 1482 1481 1479 1478 1477 1476 1475 1474 1473 1472 1471 1470 1469 1467 1466
1498 1498 1498 1497 1497 1497 1497 1497 1497 1497 1497 1496 1495 1494 1493 1492 1492 1492 1491 1490 1489 1488 1488 1487 1485 1484 1483 1481 1479 1478 1476 1475 1474 1473 1471 1470 1469 1468 1467 1466 1465 1464 1463
1496 1496 1495 1495 1495 1495 1495 1494 1494 1494 1494 1493 1492 1491 1491 1490 1490 1489 1488 1488 1487 1486 1485 1484 1483 1482 1480 1479 1477 1475 1473 1472 1471 1470 1469 1468 1466 1465 1464 1463 1462 1461 1460
1494 1494 1493 1493 1493 1493 1492 1492 1491 1491 1491 1490 1490 1489 1488 1488 1487 1486 1486 1485 1484 1483 1482 1482 1481 1479 1478 1476 1475 1473 1471 1469 1469 1468 1466 1465 1464 1463 1462 1460 1459 1458 1457
1492 1491 1491 1491 1491 1490 1490 1489 1489 1489 1488 1487 1487 1487 1486 1486 1485 1483 1483 1482 1482 1481 1480 1479 1478 1477 1475 1474 1473 1471 1469 1467 1467 1466 1464 1463 1461 1460 1459 1458 1456 1455 1454
1489 1489 1489 1489 1488 1488 1487 1487 1486 1486 1486 1485 1484 1484 1483 1482 1482 1481 1481 1480 1479 1478 1477 1476 1474 1474 1473 1471 1470 1469 1467 1466 1464 1463 1463 1461 1459 1458 1456 1455 1454 1453 1451
1487 1487 1486 1486 1486 1485 1484 1484 1483 1483 1482 1482 1482 1482 1481 1480 1479 1478 1478 1477 1477 1476 1474 1473 1472 1471 1470 1469 1468 1467 1465 1464 1463 1462 1460 1459 1457 1456 1454 1453 1452 1450 1449
1485 1485 1484 1484 1484 1483 1482 1481 1481 1480 1479 1479 1479 1478 1478 1477 1477 1476 1475 1475 1474 1473 1471 1470 1469 1468 1468 1467 1466 1465 1463 1462 1460 1459 1458 1456 1455 1454 1453 1451 1450 1448 1447
1483 1483 1483 1482 1481 1480 1479 1479 1478 1477 1477 1476 1475 1475 1475 1474 1473 1473 1472 1472 1471 1470 1468 1468 1467 1466 1465 1464 1463 1462 1461 1460 1458 1456 1455 1453 1453 1452 1450 1449 1447 1446 1445
1481 1481 1481 1480 1479 1479 1478 1477 1476 1475 1475 1474 1473 1472 1472 1471 1470 1470 1469 1468 1467 1467 1466 1465 1464 1463 1462 1461 1460 1459 1458 1457 1455 1454 1452 1451 1450 1449 1448 1447 1446 1444 1443
1479 1479 1478 1478 1477 1477 1476 1475 1475 1474 1473 1472 1471 1470 1469 1467 1466 1466 1466 1465 1464 1464 1463 1462 1461 1460 1460 1458 1457 1456 1455 1454 1452 1451 1450 1449 1448 1448 1447 1445 1444 1443 1441
1478 1477 1476 1476 1475 1475 1474 1473 1472 1471 1470 1469 1469 1468 1467 1465 1464 1464 1463 1462 1461 1461 1460 1460 1459 1458 1457 1455 1454 1453 1452 1451 1450 1449 1448 1447 1446 1445 1445 1443 1442 1441 1440
1476 1475 1474 1474 1473 1472 1472 1471 1470 1469 1468 1467 1466 1465 1464 1463 1462 1461 1460 1459 1459 1458 1457 1457 1456 1455 1454 1453 1452 1450 1449 1448 1447 1446 1445 1444 1444 1443 1442 1441 1440 1439 1438
1474 1473 1472 1472 1471 1470 1469 1469 1468 1467 1466 1465 1464 1463 1462 1461 1460 1459 1458 1457 1456 1456 1455 1454 1453 1452 1451 1450 1449 1448 1446 1445 1444 1443 1443 1442 1441 1440 1440 1439 1438 1437 1436
1472 1471 1470 1470 1469 1468 1467 1466 1466 1465 1464 1463 1462 1461 1460 1459 1458 1457 1457 1456 1454 1453 1453 1452 1451 1450 1448 1447 1446 1445 1444 1443 1442 1441 1440 1440 1439 1438 1437 1437 1436 1434 1434
1471 1470 1469 1468 1467 1466 1465 1465 1464 1463 1463 1461 1460 1460 1459 1458 1457 1456 1455 1454 1453 1452 1451 1450 1449 1447 1446 1445 1444 1443 1441 1440 1439 1438 1437 1437 1436 1436 1435 1434 1433 1432 1432
1469 1468 1467 1466 1466 1465 1464 1464 1463 1462 1461 1460 1459 1458 1457 1457 1456 1455 1453 1453 1451 1450 1449 1448 1447 1446 1444 1443 1442 1441 1440 1438 1437 1436 1435 1434 1434 1433 1433 1432 1431 1430 1430